Location: Erlenbrunn
(49.1717°N, 7.6142°E)
Time: 12:04:03
(UTC+00:00)

Cosmos 1125 Rocket - Pass Details

Date: 25 November 2020
Orbit: 757 x 780 km, 74.0° (Epoch: 25 January)

Event Time Altitude Azimuth Distance (km) Brightness Sun altitude
Rises 16:28:42 0° 337° (NNW) 3,226 6.7 -8.2°
Reaches altitude 10° 16:31:05 10° 339° (NNW) 2,297 6.0 -8.6°
Maximum altitude 16:36:18 75° 65° (ENE) 789 3.4 -9.4°
Drops below altitude 10° 16:41:29 10° 152° (SSE) 2,290 5.9 -10.2°
Sets 16:43:52 0° 154° (SSE) 3,214 6.7 -10.5°
